period_start,C,m1,H,J0,J1,J2,J3,J4,J5,JA,JB,JC,JD,JJ,JK,JN,#
2017-02-13 00:02:27,0.27,14.26,0.00,23.88,26.82,30.33,14.60,56.87,1020.53,2026.00,926.50,1144.54,1276.02,600.15,596.79,32.19,0000 0000 0000 0000 000000
2017-02-13 00:07:28,0.18,14.28,0.00,23.86,26.82,30.31,14.59,56.84,1020.52,2026.00,925.70,1143.98,1275.19,599.64,596.31,32.24,0000 0000 0000 0000 000000
2017-02-13 00:12:30,0.25,14.29,0.00,23.87,26.82,30.30,14.65,56.66,1020.58,2026.01,924.85,1143.20,1274.56,600.39,596.95,32.29,0000 0000 0000 0000 000000
2017-02-13 00:17:31,0.21,14.30,0.00,23.87,26.82,30.31,14.65,56.60,1020.84,2026.01,923.97,1142.70,1273.84,600.22,596.93,32.34,0000 0000 0000 0000 000000
2017-02-13 00:22:32,0.23,14.32,0.00,23.87,26.82,30.32,14.65,56.86,1020.85,2026.00,923.05,1142.02,1273.04,600.08,596.70,32.39,0000 0000 0000 0000 000000
2017-02-13 00:27:34,0.30,14.33,0.00,23.85,26.81,30.34,14.64,56.81,1020.91,2026.01,922.13,1141.27,1272.23,599.75,596.60,32.44,0000 0000 0000 0000 000000
2017-02-13 00:32:35,0.25,14.34,0.00,23.81,26.80,30.34,14.63,56.67,1020.91,2026.01,921.22,1140.71,1271.49,599.94,596.84,32.49,0000 0000 0000 0000 000000
2017-02-13 00:37:37,0.22,14.35,0.00,23.81,26.80,30.32,14.61,56.60,1021.01,2026.02,920.34,1140.02,1270.79,600.07,597.12,32.54,0000 0000 0000 0000 000000
2017-02-13 00:42:38,0.26,14.36,0.00,23.81,26.80,30.34,14.65,56.70,1021.02,2026.01,919.55,1139.35,1270.04,600.23,597.22,32.59,0000 0000 0000 0000 000000
2017-02-13 00:47:39,0.26,14.38,0.00,23.81,26.80,30.34,14.68,56.79,1021.01,2026.01,918.57,1138.76,1269.27,600.43,597.44,32.64,0000 0000 0000 0000 000000
2017-02-13 00:52:40,0.25,14.39,0.00,23.83,26.80,30.35,14.64,56.67,1020.80,2026.00,917.65,1138.00,1268.38,599.99,596.86,32.70,0000 0000 0000 0000 000000
2017-02-13 00:57:42,0.30,14.40,0.00,23.82,26.80,30.32,14.67,56.87,1020.52,2026.00,916.62,1137.22,1267.57,600.00,596.66,32.75,0000 0000 0000 0000 000000
2017-02-13 01:02:43,0.28,14.42,0.00,23.80,26.80,30.32,14.64,57.08,1020.36,2026.01,915.58,1136.60,1266.68,599.74,596.37,32.80,0000 0000 0000 0000 000000
2017-02-13 01:07:44,0.29,14.43,0.00,23.79,26.81,30.35,14.62,56.88,1020.51,2026.00,914.34,1135.86,1265.67,599.81,596.53,32.85,0000 0000 0000 0000 000000
2017-02-13 01:12:46,0.25,14.45,0.00,23.79,26.81,30.35,14.64,56.79,1020.90,2026.00,913.41,1135.05,1264.89,599.74,596.72,32.90,0000 0000 0000 0000 000000
2017-02-13 01:17:47,0.30,14.47,0.00,23.77,26.81,30.33,14.69,56.73,1021.19,2026.00,912.41,1134.26,1264.04,599.87,597.10,32.95,0000 0000 0000 0000 000000
2017-02-13 01:22:48,0.25,14.48,0.00,23.76,26.82,30.36,14.65,56.80,1021.03,2026.00,911.54,1133.71,1263.21,599.68,596.77,33.00,0000 0000 0000 0000 000000
2017-02-13 01:27:49,0.26,14.49,0.00,23.77,26.82,30.36,14.60,56.87,1021.09,2026.00,910.53,1132.98,1262.36,599.70,596.82,33.05,0000 0000 0000 0000 000000
2017-02-13 01:32:51,0.32,14.50,0.00,23.75,26.82,30.36,14.66,57.13,1021.04,2026.00,909.46,1132.13,1261.46,599.97,597.08,33.10,0000 0000 0000 0000 000000
2017-02-13 01:37:52,0.30,14.52,0.00,23.74,26.82,30.40,14.66,57.08,1020.99,2026.00,908.43,1131.45,1260.57,599.90,597.04,33.15,0000 0000 0000 0000 000000
2017-02-13 01:42:53,0.29,14.54,0.00,23.75,26.82,30.39,14.61,57.15,1020.99,2025.99,907.31,1130.66,1259.63,599.85,597.01,33.20,0000 0000 0000 0000 000000
2017-02-13 01:47:54,0.24,14.55,0.00,23.73,26.82,30.38,14.66,56.83,1021.29,2025.99,906.23,1129.94,1258.75,599.84,597.12,33.25,0000 0000 0000 0000 000000
2017-02-13 01:52:56,0.27,14.57,0.00,23.70,26.82,30.41,14.67,56.83,1021.46,2025.99,905.21,1129.10,1257.96,600.10,597.53,33.30,0000 0000 0000 0000 000000
2017-02-13 01:57:57,0.30,14.58,0.00,23.70,26.82,30.42,14.65,57.02,1021.19,2025.99,904.22,1128.40,1257.05,600.10,597.44,33.35,0000 0000 0000 0000 000000
2017-02-13 02:02:58,0.31,14.60,0.00,23.70,26.82,30.42,14.63,56.62,1021.15,2025.99,903.04,1127.63,1256.10,599.97,597.26,33.40,0000 0000 0000 0000 000000
2017-02-13 02:08:00,0.33,14.61,0.00,23.71,26.82,30.42,14.71,56.67,1021.12,2025.98,901.82,1126.80,1255.13,600.21,597.47,33.45,0000 0000 0000 0000 000000
2017-02-13 02:13:01,0.34,14.63,0.00,23.70,26.82,30.41,14.66,56.74,1021.09,2025.99,900.59,1125.93,1254.11,599.74,596.95,33.50,0000 0000 0000 0000 000000
2017-02-13 02:18:02,0.34,14.65,0.00,23.71,26.82,30.41,14.63,56.66,1021.11,2025.99,899.36,1125.05,1253.09,599.70,596.90,33.56,0000 0000 0000 0000 000000
2017-02-13 02:23:04,0.34,14.66,0.00,23.71,26.82,30.41,14.67,56.75,1021.01,2025.98,898.10,1124.13,1252.01,600.06,597.24,33.61,0000 0000 0000 0000 000000
2017-02-13 02:28:05,0.44,14.69,0.00,23.70,26.82,30.42,14.58,56.63,1020.99,2025.99,896.65,1123.16,1250.85,599.87,596.98,33.66,0000 0000 0000 0000 000000
2017-02-13 02:33:06,0.36,14.71,0.00,23.70,26.82,30.40,14.68,56.63,1020.87,2025.99,895.39,1122.19,1249.75,600.13,597.28,33.71,0000 0000 0000 0000 000000
2017-02-13 02:38:07,0.33,14.72,0.00,23.70,26.82,30.41,14.61,56.79,1020.94,2025.99,894.16,1121.30,1248.74,600.15,597.16,33.76,0000 0000 0000 0000 000000
2017-02-13 02:43:09,0.32,14.74,0.00,23.68,26.82,30.42,14.65,56.94,1020.73,2025.98,892.99,1120.51,1247.77,600.31,597.34,33.81,0000 0000 0000 0000 000000
2017-02-13 02:48:10,0.42,14.76,0.00,23.65,26.82,30.39,14.79,57.14,1020.97,2025.97,891.71,1119.58,1246.61,600.18,597.49,33.86,0000 0000 0000 0000 000000
2017-02-13 02:53:12,0.36,14.78,0.00,23.60,26.82,30.41,14.63,56.93,1021.01,2025.98,890.43,1118.61,1245.55,599.82,597.33,33.91,0000 0000 0000 0000 000000
2017-02-13 02:58:13,0.40,14.80,0.00,23.60,26.82,30.40,14.73,57.14,1020.81,2025.98,888.96,1117.62,1244.33,600.22,597.51,33.96,0000 0000 0000 0000 000000
2017-02-13 03:03:14,0.41,14.82,0.00,23.60,26.81,30.40,14.71,57.51,1020.15,2025.99,887.58,1116.57,1243.20,600.15,597.03,34.01,0000 0000 0000 0000 000000
2017-02-13 03:08:15,0.37,14.84,0.00,23.55,26.80,30.40,14.70,57.57,1019.59,2025.99,886.19,1115.54,1241.97,600.06,596.87,34.06,0000 0000 0000 0000 000000
2017-02-13 03:13:17,0.47,14.86,0.00,23.53,26.80,30.41,14.69,57.44,1019.55,2025.98,884.68,1114.54,1240.71,600.40,597.06,34.11,0000 0000 0000 0000 000000
2017-02-13 03:18:18,0.35,14.88,0.00,23.47,26.80,30.41,14.65,57.37,1019.89,2025.99,883.35,1113.56,1239.61,599.82,596.81,34.16,0000 0000 0000 0000 000000
2017-02-13 03:23:19,0.42,14.90,0.00,23.43,26.80,30.40,14.74,57.41,1020.08,2025.98,881.86,1112.39,1238.34,600.31,597.43,34.21,0000 0000 0000 0000 000000
2017-02-13 03:28:20,0.39,14.92,0.00,23.40,26.79,30.41,14.64,57.26,1020.51,2025.98,880.59,1111.41,1237.16,599.75,597.30,34.26,0000 0000 0000 0000 000000
2017-02-13 03:33:22,0.37,14.94,0.00,23.29,26.77,30.48,14.69,57.50,1020.28,2025.99,879.27,1110.28,1235.95,599.99,597.52,34.31,0000 0000 0000 0000 000000
2017-02-13 03:38:23,0.43,14.96,0.00,23.23,26.77,30.43,14.62,57.27,1019.96,2025.98,877.85,1109.32,1234.78,599.40,597.00,34.36,0000 0000 0000 0000 000000
2017-02-13 03:43:25,0.42,14.98,0.00,23.21,26.75,30.37,14.73,57.43,1020.01,2025.99,876.52,1108.33,1233.60,600.08,597.73,34.41,0000 0000 0000 0000 000000
2017-02-13 03:48:26,0.38,15.00,0.00,23.16,26.74,30.24,14.69,57.42,1020.04,2025.99,875.05,1107.25,1232.44,600.24,597.99,34.46,0000 0000 0000 0000 000000
2017-02-13 03:53:27,0.44,15.03,0.00,23.12,26.72,30.18,14.71,57.28,1020.09,2025.99,873.63,1106.17,1231.17,599.78,597.67,34.52,0000 0000 0000 0000 000000
2017-02-13 03:58:29,0.37,15.05,0.00,23.09,26.70,30.14,14.76,57.06,1020.50,2025.99,872.39,1105.16,1230.00,600.30,598.43,34.57,0000 0000 0000 0000 000000
2017-02-13 04:03:30,0.45,15.06,0.00,23.05,26.69,30.11,14.81,57.12,1020.36,2025.99,870.91,1104.16,1228.77,600.19,598.30,34.62,0000 0000 0000 0000 000000
2017-02-13 04:08:31,0.42,15.09,0.00,23.03,26.67,30.08,14.72,57.01,1020.11,2025.99,869.45,1103.06,1227.55,599.83,597.90,34.67,0000 0000 0000 0000 000000
2017-02-13 04:13:32,0.41,15.11,0.00,23.04,26.67,30.06,14.65,57.01,1020.41,2025.99,867.94,1101.95,1226.22,599.65,597.88,34.72,0000 0000 0000 0000 000000
2017-02-13 04:18:34,0.50,15.13,0.00,23.01,26.65,30.07,14.80,57.30,1020.42,2025.99,866.38,1100.81,1224.83,600.27,598.57,34.77,0000 0000 0000 0000 000000
2017-02-13 04:23:35,0.48,15.16,0.00,23.02,26.65,30.07,14.66,57.08,1020.10,2025.99,864.83,1099.67,1223.58,599.66,597.61,34.82,0000 0000 0000 0000 000000
2017-02-13 04:28:37,0.43,15.18,0.00,23.02,26.63,30.05,14.67,56.92,1020.43,2026.00,863.38,1098.56,1222.23,599.51,597.75,34.87,0000 0000 0000 0000 000000
2017-02-13 04:33:38,0.49,15.20,0.00,23.02,26.62,30.04,14.74,57.19,1020.14,2026.00,861.75,1097.35,1220.85,599.77,597.83,34.92,0000 0000 0000 0000 000000
2017-02-13 04:38:40,0.57,15.23,0.00,22.98,26.62,30.02,14.72,57.39,1019.67,2026.01,859.90,1095.96,1219.32,600.04,597.86,34.97,0000 0000 0000 0000 000000
2017-02-13 04:43:41,0.60,15.26,0.00,22.99,26.61,30.02,14.71,57.46,1019.23,2026.01,857.93,1094.53,1217.67,600.03,597.62,35.02,0000 0000 0000 0000 000000
2017-02-13 04:48:42,0.52,15.29,0.00,23.00,26.60,30.06,14.63,57.85,1019.00,2026.01,856.13,1093.19,1216.17,599.79,597.29,35.07,0000 0000 0000 0000 000000
2017-02-13 04:53:43,0.81,15.32,0.00,22.93,26.60,30.05,14.77,58.39,1019.00,2026.01,853.47,1091.28,1214.17,600.23,597.77,35.12,0000 0000 0000 0000 000000
2017-02-13 04:58:44,0.57,15.36,0.37,22.89,26.60,30.04,14.72,57.98,1019.12,2026.02,851.49,1089.76,1212.44,600.15,597.87,35.17,0000 0000 0000 0000 000000
2017-02-13 05:03:46,0.56,15.39,1.00,22.85,26.60,30.08,14.71,58.04,1019.10,2026.02,849.66,1088.50,1210.88,599.85,597.71,35.22,0000 0000 0000 0000 000000
2017-02-13 05:08:47,0.55,15.42,1.00,22.82,26.58,30.07,14.73,58.34,1018.94,2026.05,847.79,1087.12,1209.31,600.24,597.96,35.27,0000 0000 0000 0000 000000
2017-02-13 05:13:48,0.53,15.44,1.00,22.77,26.57,30.09,14.68,58.27,1018.80,2026.03,845.96,1085.91,1207.75,599.75,597.53,35.32,0000 0000 0000 0000 000000
2017-02-13 05:18:50,0.55,15.47,1.00,22.74,26.57,30.07,14.75,58.48,1018.82,2026.07,844.23,1084.66,1206.29,600.01,597.83,35.37,0000 0000 0000 0000 000000
2017-02-13 05:23:51,0.55,15.50,1.00,22.67,26.57,30.08,14.73,58.48,1019.05,2026.08,842.37,1083.39,1204.75,599.89,597.99,35.43,0000 0000 0000 0000 000000
2017-02-13 05:28:52,0.63,15.53,1.00,22.62,26.55,30.03,14.80,58.29,1019.24,2026.27,840.47,1081.95,1203.21,600.11,598.48,35.48,0000 0000 0000 0000 000000
2017-02-13 05:33:54,0.60,15.56,1.00,22.57,26.54,30.01,14.70,57.87,1019.55,2026.37,838.61,1080.59,1201.59,599.83,598.51,35.53,0000 0000 0000 0000 000000
2017-02-13 05:38:55,0.64,15.59,1.00,22.51,26.52,29.99,14.79,58.01,1019.55,2026.48,836.56,1079.22,1199.97,600.16,598.89,35.58,0000 0000 0000 0000 000000
2017-02-13 05:43:56,0.80,15.63,1.00,22.46,26.50,29.90,14.70,57.75,1019.82,2026.91,834.22,1077.61,1198.10,599.73,598.75,35.63,0000 0000 0000 0000 000000
2017-02-13 05:48:58,0.57,15.67,1.00,22.40,26.48,29.92,14.73,57.56,1020.34,2026.97,832.18,1076.06,1196.39,600.02,599.38,35.68,0000 0000 0000 0000 000000
2017-02-13 05:53:59,0.60,15.70,1.00,22.40,26.46,29.85,14.77,57.28,1020.71,2026.98,830.45,1074.68,1194.80,600.39,599.96,35.73,0000 0000 0000 0000 000000
2017-02-13 05:59:00,0.54,15.72,1.00,22.39,26.43,29.86,14.74,57.28,1021.00,2026.98,828.69,1073.42,1193.31,599.80,599.73,35.78,0000 0000 0000 0000 000000
2017-02-13 06:04:01,0.49,15.75,1.00,22.40,26.41,29.82,14.78,57.29,1020.91,2026.99,827.03,1072.26,1191.90,599.95,599.75,35.83,0000 0000 0000 0000 000000
2017-02-13 06:09:02,0.50,15.78,1.00,22.40,26.39,29.81,14.81,57.53,1020.60,2026.99,825.39,1071.05,1190.57,600.09,599.71,35.88,0000 0000 0000 0000 000000
2017-02-13 06:14:04,0.56,15.80,1.00,22.39,26.36,29.74,14.72,57.36,1020.55,2026.99,823.65,1069.79,1189.05,599.93,599.51,35.93,0000 0000 0000 0000 000000
2017-02-13 06:19:05,0.55,15.83,1.00,22.39,26.34,29.70,14.77,57.58,1020.95,2026.99,821.90,1068.61,1187.67,600.41,600.23,35.98,0000 0000 0000 0000 000000
2017-02-13 06:24:06,0.48,15.86,1.00,22.38,26.32,29.73,14.79,57.56,1021.05,2027.02,820.22,1067.41,1186.27,599.92,599.80,36.03,0000 0000 0000 0000 000000
2017-02-13 06:29:08,0.55,15.88,1.00,22.40,26.30,29.70,14.81,57.69,1021.04,2027.03,818.54,1066.15,1184.76,600.43,600.28,36.08,0000 0000 0000 0000 000000
2017-02-13 06:34:09,0.61,15.91,1.00,22.36,26.27,29.68,14.75,57.88,1021.07,2027.21,816.77,1064.85,1183.39,599.93,599.86,36.13,0000 0000 0000 0000 000000
2017-02-13 06:39:10,0.60,15.94,1.00,22.35,26.25,29.67,14.74,57.77,1021.66,2027.36,814.95,1063.62,1181.76,599.89,600.30,36.18,0000 0000 0000 0000 000000
2017-02-13 06:44:12,0.56,15.98,1.00,22.36,26.24,29.65,14.80,57.48,1021.99,2027.55,813.21,1062.35,1180.29,599.83,600.38,36.23,0000 0000 0000 0000 000000
2017-02-13 06:49:13,0.58,16.00,1.00,22.36,26.22,29.61,14.81,57.70,1022.00,2027.87,811.55,1061.12,1178.85,600.20,600.67,36.29,0000 0000 0000 0000 000000
2017-02-13 06:54:14,0.57,16.03,1.00,22.34,26.20,29.63,14.76,57.99,1021.55,2027.90,809.78,1059.86,1177.48,599.99,600.30,36.34,0000 0000 0000 0000 000000
2017-02-13 06:59:15,0.54,16.06,1.00,22.32,26.18,29.59,14.82,58.11,1020.99,2027.96,808.13,1058.66,1176.05,600.04,600.01,36.39,0000 0000 0000 0000 000000
2017-02-13 07:04:16,0.54,16.09,1.00,22.31,26.17,29.58,14.73,57.98,1020.98,2027.99,806.44,1057.51,1174.67,599.89,599.91,36.44,0000 0000 0000 0000 000000
2017-02-13 07:09:18,0.54,16.12,1.00,22.30,26.15,29.57,14.84,57.79,1021.28,2027.99,804.72,1056.36,1173.28,600.02,600.36,36.49,0000 0000 0000 0000 000000
2017-02-13 07:14:19,0.53,16.14,1.00,22.28,26.13,29.57,14.84,57.92,1021.50,2027.99,802.97,1055.05,1171.78,600.16,600.51,36.54,0000 0000 0000 0000 000000
2017-02-13 07:19:20,0.54,16.17,1.00,22.26,26.12,29.59,14.85,58.13,1021.50,2027.99,801.41,1053.81,1170.43,600.13,600.44,36.59,0000 0000 0000 0000 000000
2017-02-13 07:24:22,0.56,16.20,1.00,22.24,26.10,29.57,14.81,58.27,1021.25,2027.99,799.74,1052.61,1168.99,600.13,600.41,36.64,0000 0000 0000 0000 000000
2017-02-13 07:29:23,0.48,16.22,1.00,22.20,26.08,29.52,14.78,58.21,1021.36,2027.99,798.13,1051.53,1167.70,599.93,600.36,36.69,0000 0000 0000 0000 000000
2017-02-13 07:34:24,0.52,16.25,1.00,22.19,26.07,29.52,14.78,58.39,1021.49,2027.99,796.61,1050.42,1166.47,600.13,600.66,36.74,0000 0000 0000 0000 000000
2017-02-13 07:39:25,0.40,16.27,1.00,22.16,26.05,29.48,14.79,58.34,1021.50,2028.00,795.15,1049.39,1165.24,600.55,601.21,36.79,0000 0000 0000 0000 000000
2017-02-13 07:44:27,0.57,16.30,1.00,22.13,26.03,29.52,14.79,58.15,1021.53,2028.01,793.55,1048.23,1163.82,600.45,601.11,36.84,0000 0000 0000 0000 000000
2017-02-13 07:49:28,0.46,16.33,1.00,22.12,26.02,29.46,14.81,58.08,1021.50,2028.04,792.03,1047.02,1162.54,599.90,600.56,36.89,0000 0000 0000 0000 000000
2017-02-13 07:54:29,0.52,16.35,1.00,22.11,26.00,29.49,14.78,57.98,1021.28,2028.05,790.58,1045.92,1161.29,600.08,600.66,36.94,0000 0000 0000 0000 000000
2017-02-13 07:59:30,0.45,16.37,1.00,22.07,25.98,29.44,14.82,58.35,1020.87,2028.17,789.20,1044.88,1160.06,600.04,600.40,36.99,0000 0000 0000 0000 000000
2017-02-13 08:04:32,0.61,16.40,1.00,22.05,25.96,29.38,14.77,58.88,1020.22,2028.36,787.70,1043.75,1158.76,599.95,600.04,37.04,0000 0000 0000 0000 000000
2017-02-13 08:09:33,0.54,16.43,1.00,22.01,25.95,29.38,14.93,59.73,1019.49,2028.78,786.21,1042.67,1157.54,600.31,600.04,37.09,0000 0000 0000 0000 000000
2017-02-13 08:14:34,0.78,16.46,1.00,21.93,25.92,29.41,14.83,59.67,1019.04,2028.96,784.10,1041.27,1156.03,600.10,599.79,37.14,0000 0000 0000 0000 000000
2017-02-13 08:19:35,0.74,16.51,1.00,21.86,25.90,29.34,14.82,59.58,1019.16,2028.96,781.80,1039.43,1153.86,599.86,599.66,37.19,0000 0000 0000 0000 000000
2017-02-13 08:24:36,0.47,16.53,1.00,21.79,25.88,29.35,14.86,59.71,1019.62,2028.98,780.33,1038.29,1152.67,600.00,600.52,37.24,0000 0000 0000 0000 000000
2017-02-13 08:29:38,0.51,16.56,1.00,21.71,25.85,29.30,14.75,59.60,1019.66,2028.99,778.78,1037.24,1151.49,599.90,600.40,37.30,0000 0000 0000 0000 000000
2017-02-13 08:34:39,0.49,16.58,1.00,21.62,25.81,29.30,14.88,59.72,1019.66,2028.99,777.20,1036.16,1150.35,600.00,600.57,37.35,0000 0000 0000 0000 000000
2017-02-13 08:39:40,0.52,16.61,1.00,21.55,25.78,29.28,14.82,59.70,1019.64,2028.99,775.59,1035.04,1149.02,599.92,600.65,37.40,0000 0000 0000 0000 000000
2017-02-13 08:44:42,0.49,16.64,1.00,21.44,25.74,29.16,14.85,59.71,1019.56,2029.04,774.07,1034.04,1147.80,599.84,600.67,37.45,0000 0000 0000 0000 000000
2017-02-13 08:49:43,0.56,16.66,1.00,21.36,25.71,29.21,14.86,59.65,1019.29,2029.15,772.47,1033.00,1146.55,600.06,600.98,37.50,0000 0000 0000 0000 000000
2017-02-13 08:54:44,0.59,16.69,1.00,21.27,25.66,29.22,14.92,59.73,1019.19,2029.67,770.96,1031.89,1145.36,600.25,601.33,37.55,0000 0000 0000 0000 000000
2017-02-13 08:59:46,0.56,16.73,1.00,21.20,25.62,29.10,14.89,59.45,1019.52,2029.96,769.36,1030.81,1144.06,599.94,601.38,37.60,0000 0000 0000 0000 000000
2017-02-13 09:04:47,0.53,16.75,1.00,21.09,25.57,29.05,14.91,59.52,1019.56,2029.99,767.85,1029.73,1142.76,600.29,601.75,37.65,0000 0000 0000 0000 000000
2017-02-13 09:09:48,0.50,16.78,1.00,21.01,25.51,29.03,14.89,59.32,1019.93,2029.99,766.45,1028.70,1141.59,599.63,601.58,37.70,0000 0000 0000 0000 000000
2017-02-13 09:14:50,0.51,16.80,1.00,20.94,25.45,28.98,14.85,59.07,1020.03,2030.02,764.86,1027.69,1140.40,599.92,602.10,37.75,0000 0000 0000 0000 000000
2017-02-13 09:19:51,0.76,16.84,1.00,20.88,25.40,28.92,14.91,58.71,1020.04,2030.53,763.00,1026.47,1139.06,600.12,602.35,37.80,0000 0000 0000 0000 000000
2017-02-13 09:24:52,0.68,16.87,1.00,20.83,25.34,28.84,14.82,58.67,1020.04,2030.97,760.98,1025.19,1137.57,600.03,602.56,37.85,0000 0000 0000 0000 000000
2017-02-13 09:29:54,0.85,16.91,1.00,20.82,25.28,28.74,14.89,59.08,1019.72,2030.99,758.56,1023.52,1135.62,599.86,602.15,37.90,0000 0000 0000 0000 000000
2017-02-13 09:34:55,0.88,16.96,1.00,20.79,25.22,28.68,14.90,59.35,1019.48,2031.06,755.95,1021.99,1133.60,600.28,602.46,37.95,0000 0000 0000 0000 000000
2017-02-13 09:39:57,1.48,17.02,1.00,20.76,25.16,28.54,14.94,59.96,1019.06,2031.67,752.17,1019.61,1130.89,600.14,602.02,38.00,0000 0000 0000 0000 000000
2017-02-13 09:44:58,1.03,17.08,1.00,20.70,25.10,28.56,14.87,59.97,1018.81,2031.97,748.72,1017.43,1128.40,600.07,602.21,38.05,0000 0000 0000 0000 000000
2017-02-13 09:49:59,0.77,17.13,1.00,20.63,25.05,28.49,14.90,59.91,1018.76,2031.99,746.37,1015.96,1126.61,600.33,602.37,38.10,0000 0000 0000 0000 000000
2017-02-13 09:55:00,0.97,17.17,1.00,20.58,24.99,28.46,14.99,59.99,1018.69,2032.01,743.67,1014.19,1124.57,600.55,602.53,38.16,0000 0000 0000 0000 000000
2017-02-13 10:00:02,0.91,17.22,1.00,20.52,24.94,28.40,14.93,60.01,1018.55,2032.21,741.02,1012.43,1122.61,600.24,602.46,38.21,0000 0000 0000 0000 000000
2017-02-13 10:05:03,0.87,17.27,1.00,20.46,24.88,28.29,14.88,60.12,1018.52,2032.88,738.71,1010.99,1120.85,599.88,602.26,38.26,0000 0000 0000 0000 000000
2017-02-13 10:10:04,0.73,17.30,1.00,20.39,24.82,28.21,14.92,60.57,1018.21,2032.98,736.67,1009.55,1119.35,599.75,602.03,38.31,0000 0000 0000 0000 000000
2017-02-13 10:15:05,0.63,17.33,1.00,20.31,24.77,28.21,14.95,60.25,1018.46,2032.99,734.85,1008.29,1117.81,600.22,602.77,38.36,0000 0000 0000 0000 000000
2017-02-13 10:20:06,0.59,17.37,1.00,20.26,24.71,28.14,14.91,59.78,1018.98,2033.07,733.14,1007.14,1116.53,599.91,602.92,38.41,0000 0000 0000 0000 000000
2017-02-13 10:25:08,0.91,17.41,1.00,20.19,24.65,28.17,14.90,59.87,1019.17,2033.59,731.05,1005.75,1114.85,600.04,603.26,38.46,0000 0000 0000 0000 000000
2017-02-13 10:30:09,0.67,17.44,1.00,20.12,24.59,28.14,14.96,59.76,1019.20,2033.96,729.05,1004.42,1113.25,600.12,603.52,38.51,0000 0000 0000 0000 000000
2017-02-13 10:35:10,0.72,17.48,1.00,20.08,24.53,28.05,15.00,59.73,1019.13,2033.98,727.18,1002.99,1111.71,600.25,603.87,38.56,0000 0000 0000 0000 000000
2017-02-13 10:40:12,0.58,17.52,1.00,20.04,24.48,28.00,15.00,59.92,1019.27,2034.00,725.40,1001.74,1110.34,600.08,603.67,38.61,0000 0000 0000 0000 000000
2017-02-13 10:45:13,0.54,17.54,1.00,19.99,24.42,27.89,14.93,59.58,1019.65,2034.08,723.84,1000.74,1109.11,599.94,603.87,38.66,0000 0000 0000 0000 000000
2017-02-13 10:50:14,0.57,17.57,1.00,19.96,24.36,27.88,14.94,59.46,1020.14,2034.58,722.53,999.83,1108.00,600.09,604.43,38.71,0000 0000 0000 0000 000000
2017-02-13 10:55:15,0.55,17.60,1.00,19.91,24.30,27.84,14.94,59.75,1020.03,2034.96,721.04,998.89,1106.85,599.87,604.26,38.76,0000 0000 0000 0000 000000
2017-02-13 11:00:17,0.60,17.63,1.00,19.87,24.24,27.69,14.93,59.98,1020.00,2034.99,719.39,997.83,1105.68,600.39,604.83,38.81,0000 0000 0000 0000 000000
2017-02-13 11:05:18,0.61,17.66,1.00,19.83,24.18,27.62,15.01,59.97,1019.97,2035.02,717.75,996.77,1104.47,600.10,604.57,38.86,0000 0000 0000 0000 000000
2017-02-13 11:10:19,0.68,17.69,1.00,19.78,24.13,27.64,14.98,59.57,1020.31,2035.63,716.21,995.67,1103.31,600.22,604.99,38.91,0000 0000 0000 0000 000000
2017-02-13 11:15:21,0.70,17.73,1.00,19.74,24.07,27.49,14.87,59.46,1020.75,2035.98,714.49,994.41,1101.81,599.64,604.75,38.96,0000 0000 0000 0000 000000
2017-02-13 11:20:22,0.54,17.76,1.00,19.72,24.01,27.43,14.93,58.98,1021.04,2035.99,712.92,993.35,1100.55,600.20,605.46,39.01,0000 0000 0000 0000 000000
2017-02-13 11:25:24,0.55,17.79,1.00,19.71,23.96,27.39,14.99,59.18,1020.95,2035.99,711.36,992.32,1099.33,600.34,605.64,39.06,0000 0000 0000 0000 000000
2017-02-13 11:30:25,0.54,17.81,1.00,19.68,23.91,27.31,14.95,59.17,1020.66,2036.14,709.87,991.45,1098.18,599.85,605.07,39.11,0000 0000 0000 0000 000000
2017-02-13 11:35:27,0.67,17.85,1.00,19.66,23.86,27.24,14.88,59.12,1020.94,2036.64,708.50,990.32,1096.92,599.73,605.14,39.17,0000 0000 0000 0000 000000
2017-02-13 11:40:28,0.59,17.88,1.00,19.67,23.81,27.14,14.94,59.01,1021.03,2036.98,706.90,989.18,1095.71,600.05,605.50,39.22,0000 0000 0000 0000 000000
2017-02-13 11:45:30,0.43,7.16,1.00,19.67,23.79,27.12,13.29,47.50,1021.08,2041.20,2410.81,2273.96,2583.98,534.22,539.07,0.02,0000 0000 0000 0000 000002
2017-02-13 11:50:31,0.42,0.01,1.00,19.69,23.74,27.03,14.74,49.88,1020.98,2044.00,3532.62,3120.59,3565.11,600.00,605.40,0.04,0000 0000 0000 0000 000000
2017-02-13 11:55:32,0.46,0.04,1.00,19.66,23.69,27.01,14.79,50.23,1020.57,2044.02,3518.64,3110.44,3553.29,600.03,605.22,0.09,0000 0000 0000 0000 000000
2017-02-13 12:00:34,0.53,0.07,1.00,19.66,23.65,26.93,14.77,49.97,1020.62,2044.06,3504.48,3099.59,3540.58,599.97,605.10,0.14,0000 0000 0000 0000 000000
2017-02-13 12:05:35,0.60,0.11,1.00,19.67,23.61,26.97,14.74,49.97,1020.83,2044.19,3490.90,3089.31,3528.54,599.99,605.37,0.19,0000 0000 0000 0000 000000
2017-02-13 12:10:37,0.67,0.14,1.00,19.67,23.58,26.96,14.78,49.83,1021.00,2044.69,3477.50,3079.14,3516.95,599.80,605.24,0.24,0000 0000 0000 0000 000000
2017-02-13 12:15:38,0.64,0.17,1.00,19.65,23.55,26.97,14.82,50.04,1020.74,2044.96,3464.75,3069.83,3506.13,600.08,605.38,0.29,0000 0000 0000 0000 000000
2017-02-13 12:20:39,0.64,0.20,1.00,19.63,23.52,26.94,14.73,49.90,1020.52,2044.96,3451.53,3059.96,3494.59,599.82,605.04,0.34,0000 0000 0000 0000 000000
2017-02-13 12:25:41,0.64,0.23,1.00,19.63,23.49,26.93,14.78,49.80,1020.52,2044.98,3438.46,3050.10,3483.07,599.89,605.22,0.39,0000 0000 0000 0000 000000
2017-02-13 12:30:42,0.67,0.27,1.00,19.62,23.47,26.91,14.82,49.87,1020.53,2044.99,3425.13,3039.79,3471.18,599.88,605.12,0.44,0000 0000 0000 0000 000000
2017-02-13 12:35:43,0.66,0.30,1.00,19.63,23.44,26.92,14.71,49.48,1020.75,2045.00,3411.84,3029.36,3459.12,599.69,605.01,0.49,0000 0000 0000 0000 000000
2017-02-13 12:40:44,0.64,0.33,1.00,19.62,23.42,26.89,14.77,49.63,1020.71,2045.00,3398.82,3019.44,3447.65,599.86,605.16,0.54,0000 0000 0000 0000 000000
2017-02-13 12:45:45,0.66,0.37,1.00,19.59,23.40,26.92,14.72,49.61,1020.48,2045.01,3385.89,3009.35,3435.90,599.89,605.34,0.59,0000 0000 0000 0000 000000
2017-02-13 12:50:47,0.68,0.40,1.00,19.60,23.37,26.87,14.71,49.66,1020.46,2045.02,3372.52,2999.09,3423.77,600.02,605.26,0.64,0000 0000 0000 0000 000000
2017-02-13 12:55:48,0.65,0.43,1.00,19.60,23.36,26.84,14.78,49.57,1020.88,2045.06,3359.48,2989.15,3411.98,599.92,605.49,0.69,0000 0000 0000 0000 000000